Regional Weather Roundup
Issued by NWS Boston, MA

Home | Current Version | Previous Version | Text Only | Print | Product List | Glossary On
Versions: 1 2 3 4 5 6 7 8 9 10 11 12 13 14 15 16 17 18 19 20 21 22 23 24 25 26 27 28 29 30 31 32 33 34 35 36 37 38 39 40 41 42 43 44 45 46 47 48 49 50
000
ASUS41 KBOX 230105
RWRBOX

REGIONAL WEATHER ROUNDUP
NATIONAL WEATHER SERVICE BOSTON/NORTON MA
900 PM EDT THU OCT 22 2020

NOTE:  "FAIR" INDICATES FEW OR NO CLOUDS BELOW 12,000 FEET WITH NO
SIGNIFICANT WEATHER AND/OR OBSTRUCTIONS TO VISIBILITY.

MAZALL-230200-
EASTERN MASSACHUSETTS

CITY           SKY/WX    TMP DP  RH WIND       PRES   REMARKS
BOSTON         FOG       54  54 100 E3        30.28S VSB 1/2
BEVERLY        CLOUDY    57  55  93 SE6       30.28R
LAWRENCE       CLOUDY    56  53  90 E3        30.30R
BEDFORD        CLOUDY    56  54  93 E6        30.27R
BLUE HILL        N/A     54  52  93 E6        30.26R
NORWOOD        CLEAR     57  54  89 CALM      30.27S
MARSHFIELD     FOG       57  57 100 CALM      30.27S VSB 1/4
PLYMOUTH       CLOUDY    55  55 100 E5        30.26F FOG
TAUNTON        CLEAR     56  53  90 N3        30.26S
NEW BEDFORD    CLEAR     57  55  93 CALM      30.26R
$$

MAZALL-230200-
CAPE COD AND THE ISLANDS

CITY           SKY/WX    TMP DP  RH WIND       PRES   REMARKS
FALMOUTH       CLOUDY    55  55 100 MISG      30.27R FOG
HYANNIS        CLOUDY    57  56  96 CALM      30.26R
CHATHAM        FOG       57  56  96 E6        30.28S VSB 1/4
PROVINCETOWN   FOG       56  56 100 E6        30.28S VSB 3/4
NANTUCKET      FOG      N/A N/A N/A E5        30.27R VSB 3/4
MARTHAS VNYRD  CLOUDY    57  57 100 E5        30.27R FOG
$$

MAZALL-230200-
CENTRAL AND WESTERN MASSACHUSETTS

CITY           SKY/WX    TMP DP  RH WIND       PRES   REMARKS
WORCESTER      CLOUDY    62  54  74 E3        30.28R
FITCHBURG      MOCLDY    60  53  77 CALM      30.28R
ORANGE         CLOUDY    64  60  87 CALM      30.25R
SPRINGFIELD    MOCLDY    69  62  80 S6        30.23R
WESTFIELD      CLOUDY    67  63  87 S6        30.23R
NORTH ADAMS    CLOUDY    64  57  78 CALM      30.24S
PITTSFIELD     CLOUDY    65  58  78 CALM      30.24R
$$

RIZALL-230200-
RHODE ISLAND

CITY           SKY/WX    TMP DP  RH WIND       PRES   REMARKS
PROVIDENCE     CLOUDY    64  63  96 S8        30.26S
NEWPORT        MOCLDY    60  58  92 SE3       30.26S
BLOCK ISLAND   LGT RAIN  61  61 100 E3        30.27R VSB 1/2
SMITHFIELD     CLOUDY    63  62  97 CALM        N/A
WESTERLY       FOG       61  60  97 SE3       30.27R VSB 1/2
$$

CTZALL-230200-
CONNECTICUT

CITY           SKY/WX    TMP DP  RH WIND       PRES   REMARKS
BRADLEY INTL   MOCLDY    68  62  81 S7        30.23R
HARTFORD       PTCLDY    66  62  87 S5        30.24R FOG
BRIDGEPORT     CLOUDY    68  63  84 W3        30.24S
DANBURY        CLOUDY    65  61  87 W5        30.27R
GROTON         CLOUDY    63  62  97 E3        30.25R
NEW HAVEN      CLOUDY    69  65  86 CALM      30.24S
CHESTER        CLOUDY    66  64  94 CALM      30.26R
MERIDEN        CLOUDY    67  61  81 CALM      30.25R
WILLIMANTIC    CLOUDY    66  61  84 SE5       30.25S
OXFORD         CLOUDY    64  63  96 VRB3      30.27R
$$

MEZ002-015-021-024-NHZ003-005-008-011-012-014-VTZ005-008-230200-
NORTHERN NEW ENGLAND

CITY           SKY/WX    TMP DP  RH WIND       PRES   REMARKS
PORTLAND ME    MOCLDY    51  51 100 CALM      30.30R
BANGOR ME      CLOUDY    54  44  69 NE3       30.32S
CONCORD NH     CLOUDY    56  49  77 E3        30.28R
MANCHESTER NH  CLOUDY    56  51  84 E6        30.28R
NASHUA NH      CLOUDY    57  55  94 E6        30.29R
PORTSMOUTH NH  CLOUDY    56  54  95 S3        30.29
JAFFREY NH     MOCLDY    61  54  77 CALM      30.27R
KEENE NH       MOCLDY    63  59  87 CALM      30.24S
BURLINGTON VT  CLOUDY    56  46  69 CALM      30.26F
MT. WASHINGTON LGT RAIN  41  41 100 W33         N/A  VSB 1/16WCI  29
$$

NYZ052-076-230200-
EASTERN NEW YORK

CITY           SKY/WX    TMP DP  RH WIND       PRES   REMARKS
ALBANY         PTCLDY    57  54  89 CALM      30.23F
NEW YORK CITY  PTCLDY    67  62  84 S5        30.23S
$$

ANZALL-230200-
MARINE OBSERVATIONS

STATION/POSITION TIME  TEMP    WIND        PRES    VSBY  WAVE
                       AIR SEA DIR/SP/G                  HT/PER
                 (UTC) (F)     (DEG/KT/KT) (MB)    (MI)  (FT/S)
BOSTON BUOY      0050   57 58  110/  8/ 10 1024.1F         3/11
BUZZARDS BAY     0000           90/  7/  8 1025.7R
NANTUCKET SOUND  0050      62   90/  8/ 10   N/A           1/12
MASS BAY-STELLWA 0004   57 57  130/  6/  6 1024.8R  1 7/8  4/11
ISLE OF SHOALS   NOT AVBL
S OF BLOCK IS    0026      64                N/A           5/13
$$

......................KEY.........................
  SKY/WX - SKY CONDITION/PRESENT WEATHER
  TMP    - TEMPERATURE IN FAHRENHEIT
  DWPT   - DEWPOINT IN FAHRENHEIT
  RH     - RELATIVE HUMIDITY IN PERCENT
  WIND   - DIRECTION AND SPEED IN MPH
  PRES   - MEAN SEA LEVEL PRESSURE IN INCHES OF HG
  WCI    - WIND CHILL INDEX
  VSB    - VISIBILITY IN MILES
  HX     - HEAT INDEX
  TC     - TEMPERATURE IN CELSIUS
  VRB    - VARIABLE WIND DIRECTION
  N/A    - NOT AVAILABLE



USA.gov is the U.S. government's official web portal to all federal, state and local government web resources and services.